Time,TemperatureF,DewpointF,PressureIn,WindDirection,WindDirectionDegrees,WindSpeedMPH,WindSpeedGustMPH,Humidity,HourlyPrecipIn,Conditions,Clouds,dailyrainin,SolarRadiationWatts/m^2,SoftwareType,DateUTC
2013-05-14 00:01:00,59.6,45.7,29.94,WNW,293,0.0,0.0,60,0.00,,,0.00,0,Wunderground v.1.15,2013-05-14 07:01:00,
2013-05-14 00:11:00,59.3,45.4,29.94,WNW,293,0.0,0.0,60,0.00,,,0.00,0,Wunderground v.1.15,2013-05-14 07:11:00,
2013-05-14 00:21:00,59.3,45.4,29.94,WNW,293,0.0,0.0,60,0.00,,,0.00,0,Wunderground v.1.15,2013-05-14 07:21:00,
2013-05-14 00:26:00,59.3,45.4,29.94,WNW,293,0.0,0.0,60,0.00,,,0.00,0,Wunderground v.1.15,2013-05-14 07:26:00,
2013-05-14 00:36:00,59.3,45.0,29.93,WNW,293,0.0,0.0,59,0.00,,,0.00,0,Wunderground v.1.15,2013-05-14 07:36:00,
2013-05-14 00:46:00,59.3,45.4,29.93,WNW,293,0.0,0.0,60,0.00,,,0.00,0,Wunderground v.1.15,2013-05-14 07:46:00,
2013-05-14 00:51:00,59.0,45.1,29.93,WNW,293,0.0,0.0,60,0.00,,,0.00,0,Wunderground v.1.15,2013-05-14 07:51:00,
2013-05-14 01:01:00,58.7,45.7,29.93,WNW,293,0.0,0.0,62,0.00,,,0.00,0,Wunderground v.1.15,2013-05-14 08:01:00,
2013-05-14 01:06:00,58.4,45.4,29.93,WNW,293,0.0,0.0,62,0.00,,,0.00,0,Wunderground v.1.15,2013-05-14 08:06:00,
2013-05-14 01:16:00,58.0,45.5,29.93,WNW,293,0.0,0.0,63,0.00,,,0.00,0,Wunderground v.1.15,2013-05-14 08:16:00,
2013-05-14 01:21:00,57.8,45.7,29.93,WNW,293,0.0,0.0,64,0.00,,,0.00,0,Wunderground v.1.15,2013-05-14 08:21:00,
2013-05-14 01:26:00,57.5,45.4,29.93,WNW,293,0.0,0.0,64,0.00,,,0.00,0,Wunderground v.1.15,2013-05-14 08:26:00,
2013-05-14 01:36:00,56.9,45.3,29.93,WNW,293,0.0,0.0,65,0.00,,,0.00,0,Wunderground v.1.15,2013-05-14 08:36:00,
2013-05-14 01:46:00,56.2,45.4,29.93,WNW,293,0.0,0.0,67,0.00,,,0.00,0,Wunderground v.1.15,2013-05-14 08:46:00,
2013-05-14 01:51:00,56.0,45.2,29.93,WNW,293,0.0,0.0,67,0.00,,,0.00,0,Wunderground v.1.15,2013-05-14 08:51:00,
2013-05-14 01:56:00,55.9,45.1,29.93,WNW,293,0.0,0.0,67,0.00,,,0.00,0,Wunderground v.1.15,2013-05-14 08:56:00,
2013-05-14 02:06:00,56.2,45.4,29.92,WNW,293,0.0,0.0,67,0.00,,,0.00,0,Wunderground v.1.15,2013-05-14 09:06:00,
2013-05-14 02:16:00,56.3,45.1,29.92,WNW,293,0.0,0.0,66,0.00,,,0.00,0,Wunderground v.1.15,2013-05-14 09:16:00,
2013-05-14 02:21:00,56.3,45.1,29.92,WNW,293,0.0,0.0,66,0.00,,,0.00,0,Wunderground v.1.15,2013-05-14 09:21:00,
2013-05-14 02:31:00,56.5,44.9,29.92,WNW,293,0.0,0.0,65,0.00,,,0.00,0,Wunderground v.1.15,2013-05-14 09:31:00,
2013-05-14 02:36:00,56.7,44.7,29.92,WNW,293,0.0,0.0,64,0.00,,,0.00,0,Wunderground v.1.15,2013-05-14 09:36:00,
2013-05-14 02:46:00,56.7,45.5,29.92,WNW,293,0.0,0.0,66,0.00,,,0.00,0,Wunderground v.1.15,2013-05-14 09:46:00,
2013-05-14 02:51:00,56.5,45.7,29.92,WNW,293,0.0,0.0,67,0.00,,,0.00,0,Wunderground v.1.15,2013-05-14 09:51:00,
2013-05-14 02:56:00,56.3,45.5,29.92,WNW,293,0.0,0.0,67,0.00,,,0.00,0,Wunderground v.1.15,2013-05-14 09:56:00,
2013-05-14 03:06:00,55.9,45.5,29.91,WNW,293,0.0,0.0,68,0.00,,,0.00,0,Wunderground v.1.15,2013-05-14 10:06:00,
2013-05-14 03:11:00,55.7,45.3,29.91,WNW,293,0.0,0.0,68,0.00,,,0.00,0,Wunderground v.1.15,2013-05-14 10:11:00,
2013-05-14 03:16:00,55.7,45.3,29.91,WNW,293,0.0,0.0,68,0.00,,,0.00,0,Wunderground v.1.15,2013-05-14 10:16:00,
2013-05-14 03:26:00,55.4,45.0,29.92,WNW,293,0.0,0.0,68,0.00,,,0.00,0,Wunderground v.1.15,2013-05-14 10:26:00,
2013-05-14 03:36:00,55.3,45.3,29.92,WNW,293,0.0,0.0,69,0.00,,,0.00,0,Wunderground v.1.15,2013-05-14 10:36:00,
2013-05-14 03:41:00,55.0,45.4,29.92,WNW,293,0.0,0.0,70,0.00,,,0.00,0,Wunderground v.1.15,2013-05-14 10:41:00,
2013-05-14 03:51:00,54.4,45.2,29.91,WNW,293,0.0,0.0,71,0.00,,,0.00,0,Wunderground v.1.15,2013-05-14 10:51:00,
2013-05-14 04:01:00,54.1,45.3,29.91,WNW,293,0.0,0.0,72,0.00,,,0.00,0,Wunderground v.1.15,2013-05-14 11:01:00,
2013-05-14 04:11:00,53.6,45.2,29.92,WNW,293,0.0,0.0,73,0.00,,,0.00,0,Wunderground v.1.15,2013-05-14 11:11:00,
2013-05-14 04:16:00,53.5,45.1,29.92,WNW,293,0.0,0.0,73,0.00,,,0.00,0,Wunderground v.1.15,2013-05-14 11:16:00,
2013-05-14 04:26:00,53.3,45.2,29.92,WNW,293,0.0,0.0,74,0.00,,,0.00,0,Wunderground v.1.15,2013-05-14 11:26:00,
2013-05-14 04:31:00,53.2,45.1,29.92,WNW,293,0.0,0.0,74,0.00,,,0.00,0,Wunderground v.1.15,2013-05-14 11:31:00,
2013-05-14 04:41:00,52.9,45.2,29.92,WNW,293,0.0,0.0,75,0.00,,,0.00,0,Wunderground v.1.15,2013-05-14 11:41:00,
2013-05-14 04:51:00,53.1,45.0,29.91,WNW,293,0.0,0.0,74,0.00,,,0.00,0,Wunderground v.1.15,2013-05-14 11:51:00,
2013-05-14 05:01:00,52.9,45.2,29.91,WNW,293,0.0,0.0,75,0.00,,,0.00,0,Wunderground v.1.15,2013-05-14 12:01:00,
2013-05-14 05:06:00,53.1,45.4,29.92,WNW,293,0.0,0.0,75,0.00,,,0.00,0,Wunderground v.1.15,2013-05-14 12:06:00,
2013-05-14 05:16:00,53.3,45.6,29.92,WNW,293,0.0,0.0,75,0.00,,,0.00,0,Wunderground v.1.15,2013-05-14 12:16:00,
2013-05-14 05:21:00,53.5,45.4,29.92,WNW,293,0.0,0.0,74,0.00,,,0.00,0,Wunderground v.1.15,2013-05-14 12:21:00,
2013-05-14 05:31:00,53.6,45.9,29.92,WNW,293,0.0,0.0,75,0.00,,,0.00,0,Wunderground v.1.15,2013-05-14 12:31:00,
2013-05-14 05:36:00,53.6,45.9,29.92,WNW,293,0.0,0.0,75,0.00,,,0.00,0,Wunderground v.1.15,2013-05-14 12:36:00,
2013-05-14 05:46:00,53.6,45.9,29.92,WNW,293,0.0,0.0,75,0.00,,,0.00,0,Wunderground v.1.15,2013-05-14 12:46:00,
2013-05-14 05:51:00,53.5,45.8,29.92,WNW,293,0.0,0.0,75,0.00,,,0.00,0,Wunderground v.1.15,2013-05-14 12:51:00,
2013-05-14 06:01:00,53.5,45.8,29.92,WNW,293,0.0,0.0,75,0.00,,,0.00,0,Wunderground v.1.15,2013-05-14 13:01:00,
2013-05-14 06:06:00,53.5,45.8,29.92,WNW,293,0.0,0.0,75,0.00,,,0.00,5,Wunderground v.1.15,2013-05-14 13:06:00,
2013-05-14 06:16:00,53.3,45.6,29.92,WNW,293,0.0,0.0,75,0.00,,,0.00,11,Wunderground v.1.15,2013-05-14 13:16:00,
2013-05-14 06:21:00,53.2,45.5,29.93,WNW,293,0.0,0.0,75,0.00,,,0.00,14,Wunderground v.1.15,2013-05-14 13:21:00,
2013-05-14 06:26:00,52.8,45.4,29.93,WNW,293,0.0,0.0,76,0.00,,,0.00,16,Wunderground v.1.15,2013-05-14 13:26:00,
2013-05-14 06:36:00,52.3,45.6,29.93,WNW,293,0.0,0.0,78,0.00,,,0.00,21,Wunderground v.1.15,2013-05-14 13:36:00,
2013-05-14 06:41:00,52.3,45.6,29.93,WNW,293,0.0,0.0,78,0.00,,,0.00,23,Wunderground v.1.15,2013-05-14 13:41:00,
2013-05-14 06:46:00,52.6,45.9,29.93,WNW,293,0.0,0.0,78,0.00,,,0.00,25,Wunderground v.1.15,2013-05-14 13:46:00,
2013-05-14 06:56:00,53.3,46.6,29.93,WNW,293,0.0,0.0,78,0.00,,,0.00,28,Wunderground v.1.15,2013-05-14 13:56:00,
2013-05-14 07:06:00,54.2,47.1,29.93,WNW,293,0.0,0.0,77,0.00,,,0.00,32,Wunderground v.1.15,2013-05-14 14:06:00,
2013-05-14 07:16:00,54.8,48.1,29.93,WNW,293,0.0,0.0,78,0.00,,,0.00,37,Wunderground v.1.15,2013-05-14 14:16:00,
2013-05-14 07:21:00,55.1,47.7,29.94,WNW,293,0.0,0.0,76,0.00,,,0.00,39,Wunderground v.1.15,2013-05-14 14:21:00,
2013-05-14 07:26:00,55.6,48.5,29.94,WNW,293,0.0,0.0,77,0.00,,,0.00,40,Wunderground v.1.15,2013-05-14 14:26:00,
2013-05-14 07:36:00,56.6,48.0,29.93,WNW,293,0.0,0.0,73,0.00,,,0.00,44,Wunderground v.1.15,2013-05-14 14:36:00,
2013-05-14 07:46:00,57.2,47.9,29.93,WNW,293,0.0,0.0,71,0.00,,,0.00,46,Wunderground v.1.15,2013-05-14 14:46:00,
2013-05-14 07:51:00,57.8,47.7,29.94,WNW,293,0.0,0.0,69,0.00,,,0.00,47,Wunderground v.1.15,2013-05-14 14:51:00,
2013-05-14 07:56:00,58.6,48.1,29.94,WNW,293,0.0,2.0,68,0.00,,,0.00,47,Wunderground v.1.15,2013-05-14 14:56:00,
2013-05-14 08:06:00,59.0,48.1,29.94,WNW,293,0.0,0.0,67,0.00,,,0.00,51,Wunderground v.1.15,2013-05-14 15:06:00,
2013-05-14 08:16:00,59.0,48.8,29.94,WNW,293,0.0,0.0,69,0.00,,,0.00,329,Wunderground v.1.15,2013-05-14 15:16:00,
2013-05-14 08:21:00,59.5,49.3,29.94,WNW,293,0.0,0.0,69,0.00,,,0.00,385,Wunderground v.1.15,2013-05-14 15:21:00,
2013-05-14 08:26:00,60.2,48.8,29.94,WNW,293,0.0,0.0,66,0.00,,,0.00,383,Wunderground v.1.15,2013-05-14 15:26:00,
2013-05-14 08:36:00,62.4,50.1,29.94,WNW,293,0.0,0.0,64,0.00,,,0.00,360,Wunderground v.1.15,2013-05-14 15:36:00,
2013-05-14 08:46:00,63.9,49.7,29.94,WNW,293,0.0,0.0,60,0.00,,,0.00,383,Wunderground v.1.15,2013-05-14 15:46:00,
2013-05-14 08:56:00,65.0,50.3,29.94,WNW,293,0.0,0.0,59,0.00,,,0.00,473,Wunderground v.1.15,2013-05-14 15:56:00,
2013-05-14 09:01:00,65.5,50.3,29.94,WNW,292,0.0,0.0,58,0.00,,,0.00,513,Wunderground v.1.15,2013-05-14 16:01:00,
2013-05-14 09:11:00,66.0,50.3,29.94,WNW,295,0.0,0.0,57,0.00,,,0.00,564,Wunderground v.1.15,2013-05-14 16:11:00,
2013-05-14 09:16:00,66.6,52.3,29.94,WNW,295,0.0,0.0,60,0.00,,,0.00,578,Wunderground v.1.15,2013-05-14 16:16:00,
2013-05-14 09:26:00,68.6,52.3,29.94,WNW,295,0.0,0.0,56,0.00,,,0.00,606,Wunderground v.1.15,2013-05-14 16:26:00,
2013-05-14 09:31:00,69.3,53.4,29.94,WNW,295,0.0,0.0,57,0.00,,,0.00,624,Wunderground v.1.15,2013-05-14 16:31:00,
2013-05-14 09:41:00,69.4,51.0,29.94,WNW,295,0.0,0.0,52,0.00,,,0.00,650,Wunderground v.1.15,2013-05-14 16:41:00,
2013-05-14 09:46:00,68.6,52.3,29.94,WNW,300,0.0,0.0,56,0.00,,,0.00,670,Wunderground v.1.15,2013-05-14 16:46:00,
2013-05-14 09:56:00,67.1,50.9,29.94,East,98,1.0,1.0,56,0.00,,,0.00,708,Wunderground v.1.15,2013-05-14 16:56:00,
2013-05-14 10:01:00,66.3,51.1,29.94,ESE,107,1.0,1.0,58,0.00,,,0.00,729,Wunderground v.1.15,2013-05-14 17:01:00,
2013-05-14 10:11:00,67.3,52.0,29.94,ESE,107,0.0,0.0,58,0.00,,,0.00,710,Wunderground v.1.15,2013-05-14 17:11:00,
2013-05-14 10:16:00,67.9,52.6,29.94,SW,219,0.0,0.0,58,0.00,,,0.00,684,Wunderground v.1.15,2013-05-14 17:16:00,
2013-05-14 10:21:00,68.9,52.6,29.94,SSE,163,0.0,0.0,56,0.00,,,0.00,700,Wunderground v.1.15,2013-05-14 17:21:00,
2013-05-14 10:31:00,69.6,53.7,29.94,SE,129,0.0,0.0,57,0.00,,,0.00,786,Wunderground v.1.15,2013-05-14 17:31:00,
2013-05-14 10:36:00,69.9,51.5,29.94,East,92,0.0,1.0,52,0.00,,,0.00,798,Wunderground v.1.15,2013-05-14 17:36:00,
2013-05-14 10:46:00,70.9,54.4,29.94,East,95,0.0,1.0,56,0.00,,,0.00,817,Wunderground v.1.15,2013-05-14 17:46:00,
2013-05-14 10:51:00,71.8,53.7,29.94,SE,146,0.0,0.0,53,0.00,,,0.00,837,Wunderground v.1.15,2013-05-14 17:51:00,
2013-05-14 10:56:00,72.0,51.2,29.94,SE,124,0.0,2.0,48,0.00,,,0.00,847,Wunderground v.1.15,2013-05-14 17:56:00,
2013-05-14 11:06:00,72.5,52.8,29.94,West,276,0.0,0.0,50,0.00,,,0.00,865,Wunderground v.1.15,2013-05-14 18:06:00,
2013-05-14 11:11:00,73.0,53.8,29.94,West,262,0.0,0.0,51,0.00,,,0.00,875,Wunderground v.1.15,2013-05-14 18:11:00,
2013-05-14 11:16:00,72.8,53.1,29.94,SE,129,0.0,0.0,50,0.00,,,0.00,882,Wunderground v.1.15,2013-05-14 18:16:00,
2013-05-14 11:21:00,73.2,55.0,29.94,SE,129,0.0,0.0,53,0.00,,,0.00,893,Wunderground v.1.15,2013-05-14 18:21:00,
2013-05-14 11:31:00,73.9,56.7,29.94,NW,314,0.0,0.0,55,0.00,,,0.00,905,Wunderground v.1.15,2013-05-14 18:31:00,
2013-05-14 11:36:00,74.6,55.8,29.95,NW,314,0.0,0.0,52,0.00,,,0.00,909,Wunderground v.1.15,2013-05-14 18:36:00,
2013-05-14 11:46:00,75.8,54.1,29.95,South,179,0.0,0.0,47,0.00,,,0.00,928,Wunderground v.1.15,2013-05-14 18:46:00,
2013-05-14 11:51:00,76.0,55.5,29.94,East,84,0.0,2.0,49,0.00,,,0.00,932,Wunderground v.1.15,2013-05-14 18:51:00,
2013-05-14 11:56:00,75.3,54.8,29.94,SE,135,0.0,2.0,49,0.00,,,0.00,939,Wunderground v.1.15,2013-05-14 18:56:00,
2013-05-14 12:06:00,74.4,55.1,29.94,ESE,103,0.0,3.0,51,0.00,,,0.00,947,Wunderground v.1.15,2013-05-14 19:06:00,
2013-05-14 12:11:00,74.9,55.0,29.94,ESE,122,0.0,0.0,50,0.00,,,0.00,954,Wunderground v.1.15,2013-05-14 19:11:00,
2013-05-14 12:16:00,75.6,57.3,29.94,SW,234,0.0,0.0,53,0.00,,,0.00,962,Wunderground v.1.15,2013-05-14 19:16:00,
2013-05-14 12:26:00,76.3,55.2,29.94,SSE,154,0.0,0.0,48,0.00,,,0.00,970,Wunderground v.1.15,2013-05-14 19:26:00,
2013-05-14 12:31:00,76.8,56.8,29.94,SSE,158,0.0,0.0,50,0.00,,,0.00,972,Wunderground v.1.15,2013-05-14 19:31:00,
2013-05-14 12:36:00,77.0,56.9,29.94,ESE,108,0.0,0.0,50,0.00,,,0.00,977,Wunderground v.1.15,2013-05-14 19:36:00,
2013-05-14 12:46:00,75.8,54.1,29.94,East,79,0.0,1.0,47,0.00,,,0.00,986,Wunderground v.1.15,2013-05-14 19:46:00,
2013-05-14 12:56:00,76.7,56.1,29.94,South,178,0.0,0.0,49,0.00,,,0.00,979,Wunderground v.1.15,2013-05-14 19:56:00,
2013-05-14 13:06:00,77.7,54.7,29.93,SSE,166,0.0,0.0,45,0.00,,,0.00,981,Wunderground v.1.15,2013-05-14 20:06:00,
2013-05-14 13:11:00,78.3,55.8,29.93,SSE,166,0.0,0.0,46,0.00,,,0.00,984,Wunderground v.1.15,2013-05-14 20:11:00,
2013-05-14 13:21:00,78.5,54.1,29.93,WSW,245,0.0,0.0,43,0.00,,,0.00,976,Wunderground v.1.15,2013-05-14 20:21:00,
2013-05-14 13:26:00,78.6,56.7,29.93,SW,229,0.0,0.0,47,0.00,,,0.00,974,Wunderground v.1.15,2013-05-14 20:26:00,
2013-05-14 13:36:00,79.8,54.0,29.93,East,90,0.0,0.0,41,0.00,,,0.00,972,Wunderground v.1.15,2013-05-14 20:36:00,
2013-05-14 13:46:00,78.6,53.6,29.93,SSE,152,0.0,0.0,42,0.00,,,0.00,969,Wunderground v.1.15,2013-05-14 20:46:00,
2013-05-14 13:51:00,79.0,55.2,29.92,ESE,110,0.0,0.0,44,0.00,,,0.00,963,Wunderground v.1.15,2013-05-14 20:51:00,
2013-05-14 13:56:00,79.6,53.8,29.92,East,84,0.0,0.0,41,0.00,,,0.00,953,Wunderground v.1.15,2013-05-14 20:56:00,
2013-05-14 14:06:00,80.3,53.1,29.92,East,83,0.0,0.0,39,0.00,,,0.00,951,Wunderground v.1.15,2013-05-14 21:06:00,
2013-05-14 14:11:00,80.9,55.7,29.92,East,83,0.0,0.0,42,0.00,,,0.00,946,Wunderground v.1.15,2013-05-14 21:11:00,
2013-05-14 14:21:00,81.6,52.1,29.92,East,83,0.0,0.0,36,0.00,,,0.00,933,Wunderground v.1.15,2013-05-14 21:21:00,
2013-05-14 14:26:00,82.2,54.1,29.92,East,83,0.0,0.0,38,0.00,,,0.00,926,Wunderground v.1.15,2013-05-14 21:26:00,
2013-05-14 14:36:00,82.6,53.7,29.92,NNW,336,0.0,0.0,37,0.00,,,0.00,907,Wunderground v.1.15,2013-05-14 21:36:00,
2013-05-14 14:46:00,83.0,54.0,29.92,NNW,335,0.0,0.0,37,0.00,,,0.00,893,Wunderground v.1.15,2013-05-14 21:46:00,
2013-05-14 14:51:00,82.8,53.9,29.91,SW,229,0.0,0.0,37,0.00,,,0.00,884,Wunderground v.1.15,2013-05-14 21:51:00,
2013-05-14 14:56:00,83.0,54.0,29.91,SW,233,0.0,0.0,37,0.00,,,0.00,872,Wunderground v.1.15,2013-05-14 21:56:00,
2013-05-14 15:06:00,82.2,55.5,29.91,East,80,0.0,0.0,40,0.00,,,0.00,853,Wunderground v.1.15,2013-05-14 22:06:00,
2013-05-14 15:16:00,83.0,55.5,29.91,WNW,300,0.0,0.0,39,0.00,,,0.00,831,Wunderground v.1.15,2013-05-14 22:16:00,
2013-05-14 15:26:00,83.2,55.0,29.90,WNW,298,0.0,0.0,38,0.00,,,0.00,283,Wunderground v.1.15,2013-05-14 22:26:00,
2013-05-14 15:31:00,83.0,54.0,29.90,WNW,298,0.0,0.0,37,0.00,,,0.00,795,Wunderground v.1.15,2013-05-14 22:31:00,
2013-05-14 15:41:00,82.6,52.9,29.90,WNW,297,0.0,0.0,36,0.00,,,0.00,758,Wunderground v.1.15,2013-05-14 22:41:00,
2013-05-14 15:46:00,82.6,55.8,29.90,WNW,298,0.0,0.0,40,0.00,,,0.00,622,Wunderground v.1.15,2013-05-14 22:46:00,
2013-05-14 15:56:00,82.4,52.0,29.90,WNW,298,0.0,0.0,35,0.00,,,0.00,56,Wunderground v.1.15,2013-05-14 22:56:00,
2013-05-14 16:01:00,82.0,51.6,29.90,WNW,298,0.0,0.0,35,0.00,,,0.00,125,Wunderground v.1.15,2013-05-14 23:01:00,
2013-05-14 16:06:00,81.8,53.7,29.90,WNW,298,0.0,0.0,38,0.00,,,0.00,120,Wunderground v.1.15,2013-05-14 23:06:00,
2013-05-14 16:11:00,81.6,51.3,29.90,SSE,154,0.0,0.0,35,0.00,,,0.00,694,Wunderground v.1.15,2013-05-14 23:11:00,
2013-05-14 16:16:00,82.0,51.6,29.90,SSE,154,0.0,0.0,35,0.00,,,0.00,679,Wunderground v.1.15,2013-05-14 23:16:00,
2013-05-14 16:26:00,82.8,50.8,29.90,SSE,154,0.0,0.0,33,0.00,,,0.00,649,Wunderground v.1.15,2013-05-14 23:26:00,
2013-05-14 16:31:00,83.0,51.7,29.90,SSE,155,0.0,0.0,34,0.00,,,0.00,636,Wunderground v.1.15,2013-05-14 23:31:00,
2013-05-14 16:41:00,83.4,50.4,29.90,SSE,155,0.0,0.0,32,0.00,,,0.00,608,Wunderground v.1.15,2013-05-14 23:41:00,
2013-05-14 16:46:00,83.2,49.4,29.90,SSE,155,0.0,0.0,31,0.00,,,0.00,592,Wunderground v.1.15,2013-05-14 23:46:00,
2013-05-14 16:56:00,82.2,47.7,29.90,SSE,155,0.0,0.0,30,0.00,,,0.00,561,Wunderground v.1.15,2013-05-14 23:56:00,
2013-05-14 17:06:00,81.8,49.1,29.90,SW,234,0.0,0.0,32,0.00,,,0.00,529,Wunderground v.1.15,2013-05-15 00:06:00,
2013-05-14 17:11:00,81.4,49.5,29.90,SW,234,0.0,0.0,33,0.00,,,0.00,512,Wunderground v.1.15,2013-05-15 00:11:00,
2013-05-14 17:16:00,81.2,50.2,29.90,SW,234,0.0,0.0,34,0.00,,,0.00,497,Wunderground v.1.15,2013-05-15 00:16:00,
2013-05-14 17:26:00,82.0,48.4,29.90,SW,234,0.0,0.0,31,0.00,,,0.00,469,Wunderground v.1.15,2013-05-15 00:26:00,
2013-05-14 17:36:00,81.2,47.7,29.90,SW,234,0.0,0.0,31,0.00,,,0.00,439,Wunderground v.1.15,2013-05-15 00:36:00,
2013-05-14 17:46:00,79.2,48.4,29.90,SW,234,0.0,0.0,34,0.00,,,0.00,404,Wunderground v.1.15,2013-05-15 00:46:00,
2013-05-14 17:56:00,78.6,48.7,29.90,SW,235,0.0,0.0,35,0.00,,,0.00,371,Wunderground v.1.15,2013-05-15 00:56:00,
2013-05-14 18:01:00,78.3,49.1,29.90,SW,235,0.0,0.0,36,0.00,,,0.00,44,Wunderground v.1.15,2013-05-15 01:01:00,
2013-05-14 18:06:00,77.7,48.6,29.90,SW,235,0.0,0.0,36,0.00,,,0.00,54,Wunderground v.1.15,2013-05-15 01:06:00,
2013-05-14 18:11:00,76.8,47.8,29.90,SW,235,0.0,0.0,36,0.00,,,0.00,46,Wunderground v.1.15,2013-05-15 01:11:00,
2013-05-14 18:16:00,75.8,49.1,29.90,SW,235,0.0,0.0,39,0.00,,,0.00,39,Wunderground v.1.15,2013-05-15 01:16:00,
2013-05-14 18:26:00,73.9,48.7,29.90,SW,235,0.0,0.0,41,0.00,,,0.00,72,Wunderground v.1.15,2013-05-15 01:26:00,
2013-05-14 18:36:00,72.1,48.4,29.90,SW,235,0.0,0.0,43,0.00,,,0.00,37,Wunderground v.1.15,2013-05-15 01:36:00,
2013-05-14 18:46:00,70.8,48.4,29.90,SW,235,0.0,0.0,45,0.00,,,0.00,35,Wunderground v.1.15,2013-05-15 01:46:00,
2013-05-14 18:56:00,69.8,48.1,29.90,SW,235,0.0,0.0,46,0.00,,,0.00,81,Wunderground v.1.15,2013-05-15 01:56:00,
2013-05-14 19:01:00,69.6,47.9,29.90,SW,235,0.0,0.0,46,0.00,,,0.00,37,Wunderground v.1.15,2013-05-15 02:01:00,
2013-05-14 19:06:00,69.3,48.2,29.90,SW,235,0.0,0.0,47,0.00,,,0.00,42,Wunderground v.1.15,2013-05-15 02:06:00,
2013-05-14 19:16:00,68.8,47.7,29.90,SW,235,0.0,0.0,47,0.00,,,0.00,25,Wunderground v.1.15,2013-05-15 02:16:00,
2013-05-14 19:26:00,68.1,48.2,29.90,SW,235,0.0,0.0,49,0.00,,,0.00,21,Wunderground v.1.15,2013-05-15 02:26:00,
2013-05-14 19:36:00,67.3,48.0,29.91,SW,235,0.0,0.0,50,0.00,,,0.00,18,Wunderground v.1.15,2013-05-15 02:36:00,
2013-05-14 19:46:00,66.3,48.1,29.91,SW,235,0.0,0.0,52,0.00,,,0.00,14,Wunderground v.1.15,2013-05-15 02:46:00,
2013-05-14 19:56:00,65.2,47.6,29.91,SW,235,0.0,0.0,53,0.00,,,0.00,11,Wunderground v.1.15,2013-05-15 02:56:00,
2013-05-14 20:06:00,63.9,47.4,29.93,SW,235,0.0,0.0,55,0.00,,,0.00,7,Wunderground v.1.15,2013-05-15 03:06:00,
2013-05-14 20:11:00,63.2,47.2,29.93,SW,235,0.0,0.0,56,0.00,,,0.00,5,Wunderground v.1.15,2013-05-15 03:11:00,
2013-05-14 20:21:00,62.4,46.5,29.92,SW,235,0.0,0.0,56,0.00,,,0.00,0,Wunderground v.1.15,2013-05-15 03:21:00,
2013-05-14 20:31:00,61.8,46.4,29.92,SW,235,0.0,0.0,57,0.00,,,0.00,0,Wunderground v.1.15,2013-05-15 03:31:00,
2013-05-14 20:41:00,61.3,46.4,29.93,SW,235,0.0,0.0,58,0.00,,,0.00,0,Wunderground v.1.15,2013-05-15 03:41:00,
2013-05-14 20:46:00,60.9,46.5,29.93,SW,235,0.0,0.0,59,0.00,,,0.00,0,Wunderground v.1.15,2013-05-15 03:46:00,
2013-05-14 20:56:00,60.1,46.2,29.94,SW,235,0.0,0.0,60,0.00,,,0.00,0,Wunderground v.1.15,2013-05-15 03:56:00,
2013-05-14 21:01:00,59.6,46.6,29.94,SW,235,0.0,0.0,62,0.00,,,0.00,0,Wunderground v.1.15,2013-05-15 04:01:00,
2013-05-14 21:06:00,59.2,46.2,29.94,SW,235,0.0,0.0,62,0.00,,,0.00,0,Wunderground v.1.15,2013-05-15 04:06:00,
2013-05-14 21:11:00,58.7,46.1,29.94,ENE,75,0.0,0.0,63,0.00,,,0.00,0,Wunderground v.1.15,2013-05-15 04:11:00,
2013-05-14 21:16:00,58.3,46.2,29.94,ENE,75,0.0,0.0,64,0.00,,,0.00,0,Wunderground v.1.15,2013-05-15 04:16:00,
2013-05-14 21:51:00,56.2,45.4,29.96,ENE,75,0.0,0.0,67,0.00,,,0.00,0,Wunderground v.1.15,2013-05-15 04:51:00,
2013-05-14 21:56:00,55.9,46.3,29.96,ENE,75,0.0,0.0,70,0.00,,,0.00,0,Wunderground v.1.15,2013-05-15 04:56:00,
2013-05-14 22:06:00,55.4,45.4,29.98,ENE,75,0.0,0.0,69,0.00,,,0.00,0,Wunderground v.1.15,2013-05-15 05:06:00,
2013-05-14 22:16:00,55.1,44.7,29.98,ENE,75,0.0,0.0,68,0.00,,,0.00,0,Wunderground v.1.15,2013-05-15 05:16:00,
2013-05-14 22:21:00,55.1,44.7,29.97,ENE,75,0.0,0.0,68,0.00,,,0.00,0,Wunderground v.1.15,2013-05-15 05:21:00,
2013-05-14 22:26:00,55.0,44.6,29.97,ENE,75,0.0,0.0,68,0.00,,,0.00,0,Wunderground v.1.15,2013-05-15 05:26:00,
2013-05-14 22:36:00,55.0,44.2,29.98,ENE,75,0.0,0.0,67,0.00,,,0.00,0,Wunderground v.1.15,2013-05-15 05:36:00,
2013-05-14 22:41:00,55.0,44.2,29.98,ENE,75,0.0,0.0,67,0.00,,,0.00,0,Wunderground v.1.15,2013-05-15 05:41:00,
2013-05-14 22:51:00,54.8,44.0,29.98,ENE,75,0.0,0.0,67,0.00,,,0.00,0,Wunderground v.1.15,2013-05-15 05:51:00,
2013-05-14 22:56:00,54.7,44.0,29.98,ENE,75,0.0,0.0,67,0.00,,,0.00,0,Wunderground v.1.15,2013-05-15 05:56:00,
2013-05-14 23:06:00,54.5,43.4,29.98,ENE,75,0.0,0.0,66,0.00,,,0.00,0,Wunderground v.1.15,2013-05-15 06:06:00,
2013-05-14 23:11:00,54.4,43.3,29.98,ENE,75,0.0,0.0,66,0.00,,,0.00,0,Wunderground v.1.15,2013-05-15 06:11:00,
2013-05-14 23:16:00,54.2,43.1,29.98,ENE,75,0.0,0.0,66,0.00,,,0.00,0,Wunderground v.1.15,2013-05-15 06:16:00,
2013-05-14 23:21:00,54.2,43.1,29.98,ENE,75,0.0,0.0,66,0.00,,,0.00,0,Wunderground v.1.15,2013-05-15 06:21:00,
2013-05-14 23:26:00,54.2,43.1,29.98,ENE,75,0.0,0.0,66,0.00,,,0.00,0,Wunderground v.1.15,2013-05-15 06:26:00,
2013-05-14 23:36:00,53.9,42.8,29.98,ENE,75,0.0,0.0,66,0.00,,,0.00,0,Wunderground v.1.15,2013-05-15 06:36:00,
2013-05-14 23:46:00,53.8,42.7,29.98,ENE,75,0.0,0.0,66,0.00,,,0.00,0,Wunderground v.1.15,2013-05-15 06:46:00,
2013-05-14 23:56:00,53.8,43.1,29.98,ENE,75,0.0,0.0,67,0.00,,,0.00,0,Wunderground v.1.15,2013-05-15 06:56:00,